This demonstration page uses our WeatherBlox Daily Observations layout. Learn more.

Left ArrowRight Arrow

Hourly Observations for March 4, 2021

Temp ( °F °C ) Dew Point ( °F °C ) Humidity (%) Winds ( mph kmh ) Pressure ( in mb ) Visibility ( mi km ) Precip ( " mm )
12:54 am 00:54 Clear 31 -0.6 25 -3.9 79 79 N 7 11 30.10 1019 10 16 N/A
1:54 am 01:54 Clear 34 1.1 28 -2.2 79 79 NNW 5 7 30.10 1019 10 16 N/A
2:54 am 02:54 Clear 31 -0.6 27 -2.8 85 85 NNW 5 7 30.10 1019 10 16 N/A
3:54 am 03:54 Clear 29 -1.7 25 -3.9 85 85 N 6 9 30.10 1019 10 16 N/A
4:54 am 04:54 Clear 29 -1.7 25 -3.9 85 85 N 6 9 30.11 1020 10 16 N/A
5:54 am 05:54 Clear 31 -0.6 26 -3.3 82 82 NNW 3 6 30.12 1020 10 16 N/A
6:54 am 06:54 Clear 26 -3.3 23 -5 88 88 NNW 3 6 30.14 1021 10 16 N/A
7:54 am 07:54 Sunny 33 0.6 28 -2.2 82 82 N 6 9 30.15 1021 10 16 N/A
8:54 am 08:54 Sunny 45 7.2 34 1.1 66 66 E 6 9 30.14 1021 10 16 N/A
9:54 am 09:54 Sunny 52 11.1 34 1.1 50 50 E 6 9 30.14 1021 10 16 N/A
10:54 am 10:54 Sunny 56 13.3 34 1.1 44 44 E 5 7 30.14 1021 10 16 N/A
11:54 am 11:54 Sunny 62 16.7 33 0.6 34 34 SE 14 22 30.11 1020 10 16 N/A
12:54 pm 12:54 Sunny 66 18.9 33 0.6 29 29 ESE 14 22 30.09 1019 10 16 N/A
1:54 pm 13:54 Sunny 68 20 33 0.6 27 27 ESE 13 20 30.06 1018 10 16 N/A
2:54 pm 14:54 Sunny 69 20.6 32 undefined 25 25 ESE 17 28 30.06 1018 10 16 N/A
3:54 pm 15:54 Sunny 69 20.6 31 -0.6 24 24 ESE 15 24 30.05 1018 10 16 N/A
4:54 pm 16:54 Sunny 67 19.4 29 -1.7 24 24 E 14 22 30.06 1018 10 16 N/A
5:54 pm 17:54 Sunny 63 17.2 31 -0.6 30 30 ESE 9 15 30.08 1019 10 16 N/A
6:54 pm 18:54 Clear 56 13.3 34 1.1 44 44 ENE 10 17 30.11 1020 10 16 N/A
7:54 pm 19:54 Clear 54 12.2 35 1.7 49 49 ENE 17 28 30.13 1020 10 16 N/A
8:54 pm 20:54 Clear 52 11.1 36 2.2 55 55 E 16 26 30.14 1021 10 16 N/A
9:54 pm 21:54 Clear 49 9.4 35 1.7 59 59 E 9 15 30.17 1022 10 16 N/A
10:54 pm 22:54 Clear 49 9.4 34 1.1 56 56 E 13 20 30.19 1023 10 16 N/A
11:54 pm 23:54 Clear 46 7.8 33 0.6 61 61 E 8 13 30.20 1023 10 16 N/A

Powered by AerisWeather